Location: *
(48.4333°N, 5.0333°W)
Time: 02:20:07
(UTC+00:00)

SJ-6B - Pass Details

Date: 22 June 2021
Orbit: 509 x 581 km, 97.6° (Epoch: 02 August)

Event Time Altitude Azimuth Distance (km) Brightness Sun altitude
Rises 21:11:56 0° 207° (SSW) 2,772 6.2 -6.5°
Reaches altitude 10° 21:14:45 10° 228° (SW) 1,870 5.6 -6.8°
Maximum altitude 21:17:23 17° 269° (W) 1,482 5.6 -7.1°
Drops below altitude 10° 21:20:01 10° 310° (NW) 1,856 7.2 -7.4°
Sets 21:22:48 0° 331° (NNW) 2,742 8.4 -7.7°
